This is the latest recevied weather packets stored in our database for station/object I2HLY-3. If no packets are shown the sender has not sent any weather packets the latest 10 day(s).
| Time | Temp. | Humidity | Pressure | Rain* | Wind** | Luminosity | Snow |
|---|---|---|---|---|---|---|---|
| 1777531639 | 12.78° C | 74% | 1021.9 hPa | 0 mm | - | - | - |
| 1777530741 | 12.78° C | 75% | 1021.7 hPa | 0 mm | - | - | - |
| 1777529840 | 12.78° C | 77% | 1021.6 hPa | 0 mm | - | - | - |
| 1777528938 | 12.78° C | 79% | 1021.5 hPa | 0 mm | - | - | - |
| 1777528037 | 12.78° C | 82% | 1021.5 hPa | 0 mm | - | - | - |
| 1777527141 | 12.78° C | 81% | 1021.4 hPa | 0 mm | - | - | - |
| 1777526240 | 12.22° C | 83% | 1021 hPa | 0 mm | - | - | - |
| 1777525340 | 12.22° C | 84% | 1021 hPa | 0 mm | - | - | - |
| 1777524440 | 12.22° C | 85% | 1020.6 hPa | 0 mm | - | - | - |
| 1777523540 | 12.22° C | 85% | 1020.5 hPa | 0 mm | - | - | - |
| 1777522640 | 12.22° C | 84% | 1020.2 hPa | 0 mm | - | - | - |
| 1777521742 | 12.22° C | 85% | 1020 hPa | 0 mm | - | - | - |
| 1777520842 | 12.22° C | 88% | 1020 hPa | 0 mm | - | - | - |
| 1777519942 | 12.22° C | 88% | 1020 hPa | 0 mm | - | - | - |
| 1777519045 | 12.22° C | 88% | 1020 hPa | 0 mm | - | - | - |
| 1777518144 | 12.22° C | 88% | 1019.8 hPa | 0 mm | - | - | - |
| 1777517240 | 12.22° C | 88% | 1019.7 hPa | 0 mm | - | - | - |
| 1777516339 | 12.22° C | 87% | 1019.9 hPa | 1.02 mm | - | - | - |
| 1777515441 | 12.22° C | 86% | 1019.8 hPa | 1.02 mm | - | - | - |
| 1777514543 | 12.78° C | 87% | 1019.9 hPa | 1.02 mm | - | - | - |
| 1777513645 | 12.78° C | 91% | 1019.8 hPa | 1.02 mm | - | - | - |
| 1777512751 | 12.78° C | 92% | 1019.5 hPa | 0 mm | - | - | - |
| 1777511851 | 12.78° C | 92% | 1019.4 hPa | 0 mm | - | - | - |
| 1777510953 | 13.33° C | 92% | 1019.5 hPa | 1.02 mm | - | - | - |
| 1777510039 | 13.33° C | 91% | 1019.3 hPa | 1.02 mm | - | - | - |
* Rain latest hour (hover to see other rain measurements)
** Current wind speed in m/s (hover to see current wind gust speed)